Location: ????????
(60.4333°N, 46.4710°E)
Time: 03:40:11
(UTC+00:00)

Cosmos 1470 Rocket - Pass Details

Date: 25 November 2020
Orbit: 604 x 633 km, 82.5° (Epoch: 19 January)

Event Time Altitude Azimuth Distance (km) Brightness Sun altitude
Rises 13:42:37 0° 348° (NNW) 2,895 6.9 -11.2°
Reaches altitude 10° 13:45:10 10° 1° (N) 1,981 5.9 -11.5°
Maximum altitude 13:48:52 26° 59° (ENE) 1,210 4.5 -11.9°
Drops below altitude 10° 13:52:33 10° 116° (ESE) 1,961 5.7 -12.3°
Sets 13:55:03 0° 130° (SE) 2,858 6.7 -12.6°
